WD6AWP Weather Reports


Display with metric or nautical units.
time (UTC)temp
F
wind
direction
speed
MPH
gust
MPH
rain 1hr
in
rain 24hr
in
rain mn
in
humidity
%
barometer
mb
20260903044504 69 278 0.0 7.0 0.00 0.00 0.00 81 1014.5
20260903043004 69 278 2.0 5.0 0.00 0.00 0.00 81 1014.4
20260903041503 69 277 2.0 6.0 0.00 0.00 0.00 81 1014.5
20260903040003 69 277 0.0 2.0 0.00 0.00 0.00 78 1014.4
20260903034502 70 277 1.0 4.0 0.00 0.00 0.00 79 1014.1
20260903033002 70 277 3.0 8.0 0.00 0.00 0.00 80 1014.0
20260903031600 71 284 3.0 9.0 0.00 0.00 0.00 79 1013.9
20260903030100 71 273 6.0 9.0 0.00 0.00 0.00 79 1013.9
20260903024600 71 269 5.0 10.0 0.00 0.00 0.00 78 1013.9
20260903023059 71 261 8.0 12.0 0.00 0.00 0.00 78 1013.7
20260903021558 72 275 8.0 12.0 0.00 0.00 0.00 77 1013.8
20260903020059 72 257 10.0 15.0 0.00 0.00 0.00 76 1013.8
20260903014557 72 282 10.0 17.0 0.00 0.00 0.00 75 1013.7
20260903013056 73 257 9.0 18.0 0.00 0.00 0.00 76 1013.7
20260903011605 73 260 12.0 21.0 0.00 0.00 0.00 75 1013.7
20260903010052 74 276 14.0 20.0 0.00 0.00 0.00 75 1013.6
20260903004550 76 259 12.0 21.0 0.00 0.00 0.00 76 1013.6
20260903003049 75 260 12.0 20.0 0.00 0.00 0.00 76 1013.5
20260903001548 76 284 11.0 18.0 0.00 0.00 0.00 75 1013.5
20260903000047 77 273 10.0 17.0 0.00 0.00 0.00 73 1013.6
20260902234547 77 219 8.0 17.0 0.00 0.00 0.00 72 1013.7
20260902233054 78 253 5.0 14.0 0.00 0.00 0.00 68 1013.9
20260902231553 78 221 6.0 15.0 0.00 0.00 0.00 64 1014.0
20260902230041 78 259 7.0 15.0 0.00 0.00 0.00 66 1014.0
20260902224547 78 233 6.0 15.0 0.00 0.00 0.00 67 1014.2
20260902223037 79 206 6.0 10.0 0.00 0.00 0.00 71 1014.4
20260902221545 79 209 7.0 12.0 0.00 0.00 0.00 70 1014.5
20260902220033 79 217 7.0 13.0 0.00 0.00 0.00 70 1014.7
20260902214531 78 223 7.0 12.0 0.00 0.00 0.00 70 1014.9
20260902213030 78 281 7.0 15.0 0.00 0.00 0.00 71 1015.1
20260902211534 79 272 6.0 15.0 0.00 0.00 0.00 71 1015.2
20260902210027 79 250 6.0 11.0 0.00 0.00 0.00 71 1015.3
20260902204525 78 235 6.0 10.0 0.00 0.00 0.00 71 1015.4
20260902203025 79 260 5.0 11.0 0.00 0.00 0.00 69 1015.4
20260902201533 78 260 6.0 10.0 0.00 0.00 0.00 70 1015.4
20260902200023 78 269 3.0 11.0 0.00 0.00 0.00 71 1015.6
20260902194523 78 286 6.0 12.0 0.00 0.00 0.00 70 1015.7
20260902193021 78 311 5.0 11.0 0.00 0.00 0.00 70 1015.8
20260902191528 78 280 5.0 11.0 0.00 0.00 0.00 70 1016.0
20260902190018 78 275 6.0 13.0 0.00 0.00 0.00 70 1016.1
20260902184516 78 196 2.0 7.0 0.00 0.00 0.00 70 1016.0
20260902183019 77 214 1.0 8.0 0.00 0.00 0.00 71 1016.2
20260902181512 77 284 3.0 9.0 0.00 0.00 0.00 71 1016.4
20260902180012 77 256 3.0 10.0 0.00 0.00 0.00 71 1016.4
20260902174510 77 248 4.0 8.0 0.00 0.00 0.00 70 1016.4
20260902173008 77 226 2.0 10.0 0.00 0.00 0.00 72 1016.3
20260902171505 76 249 2.0 9.0 0.00 0.00 0.00 71 1016.2
20260902170002 76 236 2.0 6.0 0.00 0.00 0.00 74 1016.1
20260902164559 75 215 1.0 6.0 0.00 0.00 0.00 76 1016.2
20260902163103 74 167 2.0 6.0 0.00 0.00 0.00 75 1016.1
20260902161556 74 282 2.0 7.0 0.00 0.00 0.00 78 1016.0
20260902160056 73 288 0.0 4.0 0.00 0.00 0.00 78 1015.9
20260902154547 72 288 0.0 0.0 0.00 0.00 0.00 79 1016.0
20260902153044 70 288 0.0 0.0 0.00 0.00 0.00 82 1016.0
20260902151539 68 288 0.0 0.0 0.00 0.00 0.00 88 1016.0
20260902150035 67 289 0.0 0.0 0.00 0.00 0.00 89 1015.9
20260902144536 65 288 0.0 0.0 0.00 0.00 0.00 94 1015.9
20260902143030 63 289 0.0 0.0 0.00 0.00 0.00 97 1015.8
20260902141529 61 288 0.0 0.0 0.00 0.00 0.00 95 1015.6
20260902140028 60 288 0.0 0.0 0.00 0.00 0.00 94 1015.5
20260902134536 60 288 0.0 0.0 0.00 0.00 0.00 94 1015.4
20260902133028 60 288 0.0 0.0 0.00 0.00 0.00 94 1015.3
20260902131526 60 288 0.0 0.0 0.00 0.00 0.00 94 1015.2
20260902130025 61 288 0.0 0.0 0.00 0.00 0.00 94 1015.1
20260902124525 61 288 0.0 0.0 0.00 0.00 0.00 94 1015.1
20260902123025 61 289 0.0 0.0 0.00 0.00 0.00 94 1015.2
20260902121522 61 288 0.0 0.0 0.00 0.00 0.00 93 1015.1
20260902120022 61 288 0.0 0.0 0.00 0.00 0.00 94 1015.1
20260902114527 61 288 0.0 0.0 0.00 0.00 0.00 94 1015.3
20260902113032 61 288 0.0 0.0 0.00 0.00 0.00 93 1015.2
20260902111522 61 288 0.0 0.0 0.00 0.00 0.00 94 1015.3
20260902110018 61 288 0.0 0.0 0.00 0.00 0.00 93 1015.3
20260902104517 61 288 0.0 0.0 0.00 0.00 0.00 93 1015.3
20260902103026 61 288 0.0 0.0 0.00 0.00 0.00 92 1015.4
20260902101519 61 288 0.0 0.0 0.00 0.00 0.00 92 1015.5
20260902100017 61 288 0.0 0.0 0.00 0.00 0.00 92 1015.5
20260902094515 62 288 0.0 0.0 0.00 0.00 0.00 91 1015.5
20260902093012 62 288 0.0 0.0 0.00 0.00 0.00 91 1015.5
20260902091510 62 288 0.0 0.0 0.00 0.00 0.00 92 1015.6
20260902090009 63 289 0.0 0.0 0.00 0.00 0.00 91 1015.6
20260902084512 63 288 0.0 0.0 0.00 0.00 0.00 91 1015.6
20260902083008 63 288 0.0 0.0 0.00 0.00 0.00 91 1015.7
20260902081507 63 288 0.0 0.0 0.00 0.00 0.00 90 1015.8
20260902080005 63 288 0.0 0.0 0.00 0.00 0.00 90 1015.7
20260902074503 64 289 0.0 0.0 0.00 0.00 0.00 90 1015.6
20260902073002 64 288 0.0 0.0 0.00 0.00 0.00 89 1015.5
20260902071606 64 288 0.0 0.0 0.00 0.00 0.00 90 1015.4
20260902070057 64 288 0.0 0.0 0.00 0.00 0.00 89 1015.2
20260902064604 64 288 0.0 0.0 0.00 0.00 0.00 88 1015.2
20260902063054 64 288 0.0 0.0 0.00 0.00 0.00 87 1015.2
20260902061604 65 288 0.0 0.0 0.00 0.00 0.00 86 1015.2
20260902060054 65 289 0.0 0.0 0.00 0.00 0.00 85 1015.1
20260902054552 66 288 0.0 0.0 0.00 0.00 0.00 84 1015.0
20260902053049 67 288 0.0 0.0 0.00 0.00 0.00 84 1015.0
20260902051547 67 288 0.0 0.0 0.00 0.00 0.00 84 1015.0
20260902050057 68 289 0.0 0.0 0.00 0.00 0.00 83 1015.0